CAPE
0 0 0 0 0 0 0 0 0 0 0 0 0 0 0 0 0 0 0 0 0 0
0 0 0 0 0 0 0 0 0 0 0 0 0 0 0 0 0 0 0 0 0 0
0 0 0 0 0 0 0 0 0 0 0 0 0 0 0 0 0 0 0 0 0 0
0 0 0 0 0 0 0 0 0 0 0 0 0 0 0 0 0 0 0 0 0 0
0 0 0 0 0 0 0 0 0 0 0 0 0 0 0 0 0 0 0 0 0 0
0 0 0 0 0 0 0 0 0 0 0 0 0 0 0 0 0 0 0 0 0 0
0 0 0 0 0 0 0 0 0 0 0 0 0 0 0 0 0 0 0 0 0 0
0 0 0 0 0 0 0 0 0 0 0 0 0 0 0 0 0 0 0 0 1 0
0 0 0 0 0 0 0 0 0 0 0 0 0 5 18 15 0 0 0 1 0 0
0 0 0 0 0 0 0 0 0 0 0 0 0 11 26 21 7 0 0 0 1 3
0 0 0 0 0 0 0 0 0 0 0 0 0 13 27 30 4 0 0 0 0 0
0 0 0 0 0 0 0 0 0 0 0 0 0 6 26 23 1 0 0 0 0 8
0 0 0 0 0 0 0 0 0 0 0 1 0 1 26 19 0 0 0 2 0 10
0 0 0 0 0 0 0 0 0 0 0 0 0 0 22 30 4 0 11 0 2 4
CIN
-0 -0 -0 -0 -0 -0 -0 -0 -0 -0 -0 -0 -0 -0 -0 -0 -0 -0 -0 -0 -0 -0
-0 -0 -0 -0 -0 -0 -0 -0 -0 -0 -0 -0 -0 -0 -0 -0 -0 -0 -0 -0 -0 -0
-0 -0 -0 -0 -0 -0 -0 -0 -0 -0 -0 -0 -0 -0 -0 -0 -0 -0 -0 -0 -0 -0
-0 -0 -0 -0 -0 -0 -0 -0 -0 -0 -0 -0 -0 -0 -0 -0 -0 -0 -0 -0 -0 -0
-0 -0 -0 -0 -0 -0 -0 -0 -0 -0 -0 -0 -0 -0 -0 -0 -0 -0 -0 -0 -0 -0
-0 -0 -0 -0 -0 -0 -0 -0 -0 -0 -0 -0 -0 -0 -0 -0 -0 -0 -0 -0 -0 -0
-0 -0 -0 -0 -0 -0 -0 -0 -0 -0 -0 -0 -0 -0 -0 -0 -0 -0 -0 -0 -0 -0
-0 -0 -0 -0 -0 -0 -0 -0 -0 -0 -0 -0 -0 -0 -0 -0 -0 -0 -0 -0 -0 -1
-0 -0 -0 -0 -0 -0 -0 -0 -0 -0 -0 -0 -0 -0 -0 -0 -4 -0 -0 -1 -0 -0
-0 -0 -0 -0 -0 -0 -0 -0 -0 -0 -0 -0 -0 -0 -0 -0 -3 -0 -0 -0 -0 -0
-0 -0 -0 -0 -0 -0 -0 -0 -0 -0 -0 -0 -0 -0 -0 -0 -4 -2 -0 -0 -0 -1
-0 -0 -0 -0 -0 -0 -0 -0 -0 -0 -0 -0 -0 -0 -0 -0 -3 -0 -0 -0 -0 -2
-0 -0 -0 -0 -0 -0 -0 -0 -0 -0 -0 -0 -0 -0 -0 -0 -0 -0 -0 -9 -0 -1
-0 -0 -0 -0 -0 -0 -0 -0 -0 -0 -0 -0 -0 -0 -0 -0 -1 -4 -1 -0 -1 -1
Wind_Speed
3 2 3 3 3 3 3 4 4 5 5 6 6 6 6 5 6 7 7 9 8 8
4 4 3 4 3 3 4 5 5 6 6 6 7 7 7 7 9 8 9 10 10 8
2 1 2 3 5 5 5 5 6 6 6 7 7 8 8 8 8 9 8 9 11 10
2 2 3 3 4 5 5 6 6 6 7 8 9 9 9 10 11 11 10 11 12 13
1 2 3 4 5 5 6 6 6 6 7 9 10 10 10 12 11 12 13 13 13 14
3 4 4 5 5 5 6 6 7 7 8 10 11 11 11 12 12 12 13 13 14 15
3 4 4 5 5 5 5 6 8 9 9 11 11 12 13 13 13 13 13 15 16 17
2 3 4 5 5 6 7 8 9 10 11 11 11 10 12 14 13 13 14 14 15 16
3 3 4 5 7 8 9 9 9 10 11 13 10 21 24 21 13 12 13 15 17 17
2 4 5 7 8 9 10 10 10 11 11 12 13 23 25 26 13 13 14 17 17 17
5 6 7 8 8 9 9 10 10 11 12 12 13 25 26 27 15 12 15 17 18 19
6 7 7 8 9 9 9 10 11 11 12 13 14 25 26 24 14 13 14 16 16 17
6 6 7 8 9 8 9 10 9 13 12 17 14 23 26 24 11 13 14 14 12 25
6 6 6 5 7 8 9 10 9 12 12 12 13 13 26 28 15 13 14 12 13 13
Wind_Direction
84 67 46 26 345 306 298 296 312 322 325 313 303 301 298 289 286 285 289 284 281 281
60 45 16 334 310 293 309 314 328 326 305 301 300 298 296 292 293 291 290 288 286 282
68 25 346 309 308 313 317 323 314 306 301 294 292 294 294 294 289 288 288 287 285 285
21 358 319 307 320 324 320 312 304 294 290 295 298 297 296 293 292 289 293 290 287 285
356 319 331 332 322 320 308 295 291 291 297 300 299 299 298 296 296 291 290 290 287 282
355 357 337 318 311 300 289 295 297 304 299 299 301 300 294 291 290 289 285 280 278 278
11 341 318 313 300 298 298 304 308 301 300 301 299 296 295 291 286 280 278 278 277 276
12 324 307 302 304 305 316 311 305 307 305 300 294 293 294 293 293 287 278 275 276 274
341 317 307 310 325 321 319 315 311 304 297 294 294 303 305 305 300 291 285 286 283 281
329 327 344 338 332 322 319 313 304 298 299 299 299 307 307 308 303 290 286 282 284 285
1 355 344 330 322 316 311 305 305 302 301 301 301 309 309 311 303 294 283 281 284 288
359 342 329 319 314 307 305 304 300 303 304 304 293 303 311 309 304 300 293 289 286 296
338 325 318 305 301 303 293 295 303 306 300 299 302 300 311 319 316 307 301 293 296 301
323 305 282 284 284 296 304 308 303 303 299 297 290 308 319 321 317 311 304 317 306 304